TITAN 3C TRANSTAGE DEB, 5457

Orbit data source: Space-Track

TITAN 3C TRANSTAGE DEB, 5457 is space debris in HEO originally from a launch on Tue, 21 Dec 1965 UTC launched from the Air Force Eastern Test Range (AFETR). Debris objects in space refer to the collection of defunct objects orbiting the Earth. Examples of debris include non-operational satellites, rocket bodies, and fragments generated from explosions, collisions, or faulty payload assembly.

Loading next visibility...
Identifier
5457, 1965-108J
Orbit
HEO
Country
Flag of USUS
Related business
Manufacturer
Unknown
Mission
Spacecraft
Bus & Motor
Unknown
Mass
Unknown
Launch date (UTC)
1965-12-21 (61 years ago)
Launch vehicle
Unknown
Launch site
Air Force Eastern Test Range (AFETR)
Object type
Payload
Rocket body
Debris
Shape & HBR
Unknown shape, 1.1 m
Radar Cross Section
Medium (>0.1 m² and <1 m²)

Expand to show TLE details & history
Last TLE update: 11 months ago

TLE from 11 months ago
0 TITAN 3C TRANSTAGE DEB
1 05457U 65108J   25203.27664378 -.00000135  00000-0 -17694-2 0  9996
2 05457  27.0877 161.3859 6625637 189.9418 354.3137  2.71295085  5563
Epoch: 2025-07-22T06:38Z
TLE epoch observation values (Epoch: 2025-07-22T06:38:22.022Z)
Latitude
10.98494°
Longitude
-80.70979°
Altitude
1,508.138 km
Speed
9.096 km/s
True Right ascension
21h 16m 37s
True Declination
10° 55' 37"
Sunlit
Object was in full shadow at epoch
Visualization orbit readout
Latitude
Unknown
Longitude
Unknown
Altitude
Unknown
Speed
Unknown
Apparent Right ascension
Unknown
Apparent Declination
Unknown
Sunlit
N/A
Visualization observer readout
Local Sidereal Time
16:41:56
Azimuth
Unknown
Elevation
Unknown
Doppler factor
Unknown
Orbital elements
Apogee altitude
29,731.154 km
Perigee altitude
950.656 km
Semi-major axis
21,719.042 km
Eccentricity
0.66256
Inclination
27.0877°
RAAN
161.3859°
Arg. of periapsis
189.9418°
True anomaly
324.4991°
Mean anomaly
354.3137°
Eccentric anomaly
343.58744°
Mean motion
0.67808 °/min
Orbital period
530.91 mins
BSTAR
-0.0017694
Loading maneuver chart data...
Computing Atmospheric mass density...

Documentation

Showing up to 5 results
|